Temp
58 51 47 53 56 56 51 52 50 53 53 51 51 53 58 62 59 59 61 62 64 66 69 70 70 70 69 70 70 72 70 68 70 67 66 65 65 65 67 68 68 68 69 66
51 46 57 61 59 55 52 50 48 50 54 49 51 51 57 60 60 62 62 62 63 65 67 69 66 66 65 66 68 70 71 70 68 68 69 69 68 67 68 67 66 67 67 68
49 55 62 58 52 52 50 49 48 48 49 48 44 46 51 58 62 63 63 65 65 66 66 64 64 63 62 62 63 66 69 70 70 68 69 65 66 64 64 65 64 65 65 65
53 56 56 53 51 53 46 54 52 49 46 39 45 35 48 54 56 59 61 60 62 64 62 63 61 57 57 59 60 63 65 67 69 69 66 65 65 63 65 66 65 64 64 63
49 50 51 49 52 55 48 53 50 48 43 40 39 37 45 50 51 56 58 59 60 58 59 59 57 57 56 56 55 57 59 61 65 66 67 64 66 67 67 64 62 62 61 62
49 53 53 52 51 55 54 49 48 45 43 32 42 41 40 48 54 55 53 57 57 56 55 55 54 54 54 55 55 55 56 58 61 63 65 63 65 64 62 62 61 61 60 60
46 46 48 53 46 48 49 44 31 30 28 29 38 37 45 52 54 56 57 56 55 55 53 53 52 52 52 52 55 54 56 57 60 61 62 63 65 63 62 61 61 60 59 58
39 35 45 50 48 43 44 45 32 24 26 29 34 33 42 56 52 54 54 56 54 53 52 51 51 51 50 52 53 53 53 54 57 60 60 59 62 62 61 61 61 61 60 59
43 42 50 50 49 51 43 39 46 33 21 26 34 41 51 51 51 50 52 52 51 51 50 50 50 50 50 50 51 52 52 52 53 54 55 54 57 58 58 57 58 58 58 57
49 36 45 46 48 48 45 51 36 36 20 21 32 34 41 44 49 50 48 49 50 51 51 50 49 49 49 50 50 51 52 52 51 51 51 52 53 53 54 54 52 52 52 52
50 44 35 43 41 42 41 41 44 44 36 27 25 35 49 51 51 51 49 50 50 49 49 49 48 48 48 49 49 49 50 52 53 53 52 52 52 52 52 52 52 52 52 53
50 43 30 38 45 48 50 45 46 34 31 34 33 38 51 51 51 51 50 50 49 49 49 48 47 47 47 47 48 47 47 47 47 50 51 51 51 51 50 49 49 50 49 49
50 38 25 32 39 42 39 44 48 47 38 33 27 40 53 50 48 50 49 48 47 47 46 46 47 46 46 46 46 45 45 45 46 46 46 45 45 44 43 43 44 44 44 43
52 42 37 34 39 44 37 42 45 45 32 40 37 45 44 44 47 47 47 46 45 45 46 45 44 45 45 45 44 43 44 45 44 44 43 41 41 41 41 41 40 40 40 40
48 32 39 41 44 43 40 40 43 42 45 38 44 44 51 51 48 48 47 45 45 45 45 44 44 43 43 43 44 44 43 43 43 41 39 38 37 38 37 36 36 35 35 35
46 31 34 30 40 41 35 41 43 44 46 45 46 45 57 52 52 48 48 47 46 45 46 46 45 43 42 43 42 42 40 39 39 37 35 35 34 33 32 33 33 33 33 33
36 31 27 21 37 34 28 39 41 43 46 46 41 49 55 52 51 48 47 47 47 47 47 45 44 43 42 41 42 38 37 36 34 32 31 31 31 31 31 32 32 31 31 32
32 30 29 22 28 21 37 47 48 46 47 49 50 52 55 55 50 52 50 50 49 47 45 45 44 41 40 39 38 37 34 32 31 30 29 29 29 29 29 30 29 30 30 31
40 32 29 27 27 31 40 42 43 41 42 49 49 51 53 55 49 51 53 51 51 49 48 46 44 40 38 36 34 32 31 30 30 28 28 27 26 25 27 25 27 28 27 29
37 38 28 30 22 21 31 37 41 46 35 36 39 37 38 44 38 50 52 49 47 45 43 41 38 37 35 32 32 30 28 27 26 27 27 26 25 24 24 25 25 25 26 27
30 32 30 31 28 30 33 35 40 31 32 31 35 38 37 35 39 43 47 42 41 41 37 37 35 32 31 31 31 28 26 24 24 24 24 23 23 24 23 23 24 23 22 24
30 29 28 30 27 25 36 34 35 35 34 33 38 36 32 35 37 35 35 33 34 34 33 31 28 27 28 30 28 25 22 23 22 22 21 20 20 22 21 21 21 20 21 19
28 31 30 32 31 38 36 35 39 38 37 37 36 36 38 36 34 33 31 30 30 27 27 26 24 22 22 25 25 20 20 20 19 20 19 19 20 20 20 19 19 20 20 16
29 34 28 30 34 35 36 38 39 39 36 34 34 35 38 36 33 31 30 28 26 25 23 22 21 19 17 19 19 18 17 17 18 18 18 19 19 19 19 21 21 17 13 13
30 32 28 28 33 35 35 34 36 35 34 33 34 34 35 34 32 31 27 25 25 24 23 24 22 19 16 16 14 14 14 16 16 17 18 17 18 17 18 19 16 18 17 17
31 31 29 26 36 36 34 32 33 33 33 33 33 32 34 33 31 30 27 26 24 23 23 21 19 17 15 14 12 11 12 13 15 16 16 15 16 16 16 16 15 22 23 24
MSLP
1012.63 1012.67 1012.52 1012.86 1012.92 1012.75 1013.00 1013.36 1014.10 1014.19 1015.31 1015.39 1015.42 1015.10 1014.48 1013.91 1013.80 1013.89 1013.70 1013.43 1013.53 1013.27 1013.23 1013.66 1013.96 1014.42 1014.93 1015.28 1015.74 1016.25 1017.13 1017.95 1018.80 1019.40 1019.70 1020.13 1020.39 1020.92 1021.28 1021.37 1021.78 1021.95 1022.36 1022.91
1012.69 1012.37 1012.32 1012.62 1012.77 1012.99 1013.10 1013.66 1014.21 1014.90 1015.36 1015.78 1015.70 1015.24 1014.57 1013.82 1013.37 1013.14 1013.09 1013.24 1013.21 1013.10 1013.06 1013.36 1013.87 1014.36 1014.79 1015.32 1015.70 1015.86 1016.20 1017.02 1017.75 1018.39 1019.00 1019.33 1019.90 1020.33 1020.60 1020.93 1021.26 1021.40 1021.85 1022.27
1011.82 1011.77 1011.87 1012.35 1012.91 1013.31 1013.59 1013.82 1014.26 1015.22 1015.91 1016.10 1016.07 1015.53 1014.49 1013.01 1012.70 1012.77 1012.39 1012.58 1012.71 1012.81 1013.13 1013.46 1013.84 1014.63 1015.00 1015.47 1015.75 1015.75 1015.85 1016.15 1016.94 1017.55 1018.34 1019.07 1019.56 1019.92 1020.54 1020.67 1020.97 1021.26 1021.41 1021.81
1011.95 1011.85 1012.05 1012.63 1013.27 1013.74 1014.19 1014.21 1014.78 1015.60 1016.34 1016.80 1016.56 1015.87 1014.03 1012.89 1012.48 1012.65 1012.65 1012.55 1012.59 1012.81 1013.16 1013.87 1014.52 1014.98 1015.46 1015.74 1015.96 1015.90 1015.87 1015.84 1016.17 1016.85 1017.48 1018.03 1018.63 1019.14 1019.47 1020.01 1020.41 1020.78 1021.22 1021.51
1012.17 1012.13 1012.41 1012.98 1013.25 1013.94 1014.59 1014.51 1015.35 1016.23 1016.87 1017.27 1016.94 1016.45 1013.86 1013.03 1012.68 1012.58 1012.31 1012.41 1012.71 1013.09 1013.69 1014.12 1014.72 1015.25 1015.73 1016.03 1016.22 1016.25 1016.18 1016.21 1016.03 1016.23 1016.75 1017.36 1017.84 1018.53 1018.88 1019.54 1020.03 1020.50 1020.94 1021.26
1012.75 1012.66 1012.74 1013.13 1013.83 1014.10 1015.02 1015.66 1016.45 1017.03 1017.69 1018.11 1017.07 1016.53 1014.12 1013.39 1012.56 1011.97 1012.22 1012.25 1013.10 1013.74 1014.33 1015.02 1015.53 1015.85 1016.19 1016.45 1016.60 1016.47 1016.38 1016.43 1016.33 1016.21 1016.60 1017.06 1017.52 1018.16 1018.72 1019.18 1019.76 1020.06 1020.54 1020.96
1013.18 1013.51 1013.67 1013.77 1014.51 1015.04 1015.15 1016.10 1017.63 1018.50 1018.88 1018.79 1017.49 1016.68 1013.69 1012.45 1012.08 1011.98 1012.29 1012.82 1013.50 1014.29 1015.06 1015.79 1016.25 1016.48 1016.83 1016.95 1016.84 1016.84 1016.56 1016.49 1016.40 1016.30 1016.35 1016.84 1017.14 1017.81 1018.42 1018.87 1019.37 1019.76 1020.26 1020.65
1012.79 1014.05 1013.95 1013.91 1014.07 1014.58 1015.13 1015.48 1016.49 1018.08 1019.17 1019.13 1018.25 1016.11 1012.86 1011.62 1012.04 1012.35 1012.60 1013.20 1014.03 1014.80 1015.57 1016.13 1016.59 1016.88 1017.10 1017.13 1017.20 1016.96 1016.98 1016.84 1016.64 1016.56 1016.69 1016.84 1016.97 1017.42 1018.03 1018.60 1019.01 1019.42 1019.88 1020.08
1011.59 1012.88 1013.35 1013.88 1013.99 1014.42 1015.40 1015.40 1015.63 1017.58 1019.43 1019.07 1017.53 1014.95 1012.86 1012.09 1012.18 1012.49 1013.07 1013.90 1014.54 1015.16 1015.96 1016.70 1016.95 1017.08 1017.25 1017.36 1017.48 1017.30 1017.44 1017.39 1017.27 1017.20 1017.24 1017.57 1017.64 1017.96 1018.31 1018.72 1019.00 1019.42 1019.82 1020.06
1010.68 1012.93 1014.14 1014.58 1014.40 1014.39 1014.35 1014.75 1015.87 1016.78 1018.61 1018.75 1016.37 1014.69 1012.52 1012.20 1012.13 1012.44 1013.31 1014.03 1014.92 1015.65 1016.23 1016.84 1017.26 1017.41 1017.57 1017.54 1017.73 1017.82 1017.82 1017.90 1017.95 1017.76 1017.79 1018.03 1018.38 1018.70 1018.95 1019.21 1019.59 1019.80 1020.19 1020.37
1011.04 1012.02 1014.96 1015.11 1014.33 1013.76 1014.75 1014.53 1015.01 1015.79 1016.75 1016.71 1015.95 1013.66 1011.16 1010.88 1011.09 1011.55 1012.60 1013.79 1014.89 1015.82 1016.51 1017.07 1017.47 1017.80 1017.98 1017.99 1018.03 1018.30 1018.43 1018.32 1018.42 1018.45 1018.60 1018.81 1019.11 1019.54 1019.76 1019.98 1020.27 1020.43 1020.63 1020.71
1011.18 1012.00 1014.19 1014.15 1013.63 1013.50 1013.48 1013.28 1014.08 1014.98 1015.94 1016.02 1015.37 1012.40 1010.86 1010.63 1011.01 1011.42 1012.29 1013.23 1014.22 1015.22 1016.15 1016.99 1017.49 1017.95 1018.28 1018.42 1018.58 1018.83 1018.97 1018.99 1019.10 1019.12 1019.20 1019.49 1019.81 1020.29 1020.66 1020.92 1021.03 1021.07 1021.27 1021.44
1010.90 1012.04 1013.63 1014.36 1014.33 1013.96 1013.84 1013.60 1013.83 1014.37 1015.14 1015.45 1015.18 1010.93 1010.61 1010.87 1011.30 1011.93 1012.94 1013.94 1014.84 1015.82 1016.57 1017.17 1017.67 1018.11 1018.47 1018.85 1019.13 1019.34 1019.51 1019.62 1019.65 1019.85 1020.04 1020.24 1020.65 1021.13 1021.64 1021.83 1021.92 1022.02 1022.08 1022.26
1010.72 1011.90 1012.15 1012.10 1012.75 1013.05 1013.72 1013.57 1013.97 1014.53 1014.86 1013.01 1013.35 1010.64 1011.19 1011.15 1011.55 1012.32 1013.22 1014.02 1015.15 1016.09 1016.67 1017.25 1017.77 1017.98 1018.36 1018.82 1019.26 1019.72 1019.97 1020.07 1020.31 1020.66 1020.88 1021.22 1021.75 1022.07 1022.48 1022.67 1022.79 1022.87 1022.96 1023.01
1011.46 1012.43 1012.95 1012.97 1012.99 1013.13 1013.29 1013.32 1013.35 1013.26 1012.12 1013.53 1011.52 1011.94 1008.73 1010.86 1011.43 1012.17 1012.91 1014.12 1015.02 1015.74 1016.27 1016.72 1017.33 1018.03 1018.52 1018.97 1019.32 1019.83 1020.24 1020.66 1020.89 1021.32 1021.62 1022.28 1022.59 1022.78 1023.01 1023.21 1023.43 1023.56 1023.71 1023.91
1012.31 1013.64 1013.90 1014.43 1013.91 1013.78 1013.62 1012.92 1012.51 1013.08 1012.63 1012.83 1011.94 1011.57 1007.39 1010.08 1010.71 1011.59 1012.58 1013.53 1014.25 1014.83 1015.34 1016.28 1017.31 1018.09 1018.59 1019.03 1019.67 1020.23 1020.67 1021.32 1021.86 1022.19 1022.46 1023.08 1023.22 1023.38 1023.57 1023.72 1023.91 1024.08 1024.30 1024.27
1013.52 1014.37 1015.23 1015.91 1014.97 1014.82 1014.30 1010.96 1012.49 1012.59 1012.37 1012.40 1011.76 1009.12 1009.03 1010.08 1011.05 1011.64 1012.46 1012.86 1013.29 1013.80 1014.64 1015.81 1016.73 1017.64 1018.57 1019.24 1019.77 1020.54 1021.28 1021.82 1022.89 1022.61 1023.16 1023.61 1023.91 1024.09 1024.26 1024.27 1024.32 1024.52 1024.69 1024.88
1014.76 1015.57 1015.96 1016.81 1016.14 1015.46 1011.59 1010.79 1011.24 1011.79 1011.78 1011.78 1011.47 1010.15 1009.26 1009.78 1010.55 1010.81 1010.44 1011.28 1012.41 1013.35 1014.25 1015.12 1016.03 1017.22 1018.41 1019.39 1020.25 1020.84 1021.59 1022.77 1023.24 1023.45 1023.83 1024.18 1024.45 1024.55 1024.68 1024.76 1024.95 1025.14 1025.29 1025.39
1015.01 1015.81 1016.74 1016.71 1016.35 1014.30 1011.27 1011.29 1011.10 1011.59 1010.89 1011.84 1011.70 1010.77 1010.34 1010.53 1010.62 1009.09 1010.13 1010.89 1011.33 1011.69 1012.32 1014.05 1015.66 1017.06 1018.49 1019.65 1020.74 1021.44 1022.66 1023.21 1023.55 1024.14 1024.56 1024.84 1025.03 1025.14 1025.24 1025.38 1025.51 1025.62 1025.57 1025.44
1015.67 1015.82 1016.81 1016.98 1016.20 1014.69 1012.62 1011.28 1010.98 1011.01 1011.90 1013.11 1013.16 1013.19 1012.96 1012.18 1011.85 1009.43 1010.18 1010.33 1011.18 1012.33 1013.58 1014.88 1016.31 1017.73 1018.81 1020.13 1020.94 1022.21 1023.26 1023.82 1024.33 1024.76 1025.14 1025.39 1025.59 1025.62 1025.66 1025.68 1025.82 1026.01 1025.91 1025.65
1015.78 1016.01 1016.06 1016.33 1015.69 1013.80 1012.37 1011.79 1011.37 1012.68 1013.50 1013.77 1013.85 1014.07 1014.21 1014.38 1014.13 1012.96 1012.33 1011.86 1012.04 1013.00 1014.58 1016.02 1017.30 1018.48 1019.74 1020.99 1021.72 1022.77 1023.76 1024.48 1025.04 1025.36 1025.68 1025.91 1025.96 1026.01 1026.02 1026.07 1026.21 1025.92 1026.10 1026.13
1014.87 1015.59 1015.51 1015.84 1015.49 1013.93 1012.15 1012.35 1012.32 1012.62 1013.25 1013.71 1014.11 1014.50 1014.70 1015.03 1014.91 1014.58 1014.51 1014.43 1014.56 1015.11 1016.54 1017.77 1018.62 1019.91 1020.82 1021.50 1022.39 1023.39 1024.42 1025.17 1025.53 1025.70 1025.96 1026.17 1026.21 1026.17 1026.13 1026.12 1026.37 1026.75 1026.52 1026.50
1014.08 1013.32 1013.85 1014.07 1013.15 1012.19 1012.15 1012.11 1012.21 1012.67 1013.19 1013.61 1013.97 1014.39 1014.19 1014.50 1015.57 1016.23 1016.74 1016.92 1017.35 1017.97 1018.81 1019.58 1020.03 1021.25 1022.40 1022.82 1023.41 1024.03 1025.15 1025.58 1025.92 1026.07 1026.03 1026.00 1026.20 1026.40 1026.61 1026.81 1027.08 1026.84 1026.80 1027.07
1013.65 1013.25 1013.36 1013.40 1012.36 1012.27 1012.32 1012.45 1012.59 1013.04 1013.58 1014.11 1014.29 1014.31 1014.54 1014.79 1015.32 1016.40 1017.82 1018.65 1019.31 1019.80 1020.08 1021.08 1021.81 1022.54 1023.29 1024.03 1024.40 1024.98 1025.58 1025.73 1025.67 1025.92 1026.40 1026.66 1026.90 1027.02 1027.10 1027.38 1027.39 1027.35 1027.58 1027.64
1013.41 1013.19 1013.30 1012.95 1012.57 1012.43 1012.49 1012.77 1013.15 1013.53 1013.86 1014.24 1014.64 1014.85 1014.98 1015.10 1015.87 1015.87 1016.87 1018.80 1019.88 1020.70 1021.57 1021.69 1022.36 1023.23 1024.16 1024.86 1025.19 1025.36 1025.70 1025.71 1026.02 1026.51 1026.75 1026.98 1027.35 1027.57 1027.74 1027.76 1027.57 1027.50 1027.67 1027.20
1012.97 1012.52 1012.64 1012.87 1012.57 1012.64 1013.07 1013.19 1013.41 1013.88 1014.22 1014.44 1014.83 1015.09 1015.21 1015.46 1016.08 1016.56 1016.91 1017.24 1018.96 1020.56 1021.60 1022.54 1023.31 1023.89 1024.73 1025.21 1025.70 1026.15 1026.32 1026.46 1026.39 1026.70 1027.17 1027.36 1027.45 1027.75 1028.02 1028.22 1028.21 1027.78 1027.27 1026.82
Wind_Speed
7 5 8 9 9 3 1 8 6 5 2 1 6 9 10 8 7 9 8 7 8 9 9 10 10 9 8 8 9 12 15 14 11 8 9 7 8 7 7 6 7 7 8 9
4 7 9 9 8 5 4 4 2 4 5 3 6 9 10 9 8 10 9 9 10 7 8 8 8 8 7 6 8 8 10 14 13 10 8 8 7 7 7 5 5 6 8 9
8 8 10 8 5 8 5 6 4 5 4 2 2 7 10 11 13 10 8 9 8 10 9 9 9 8 6 6 7 7 8 9 14 13 9 4 3 3 6 7 7 8 8 7
7 3 10 8 6 5 6 5 7 8 5 2 3 6 5 6 7 7 8 8 8 7 3 6 5 4 2 2 2 5 6 7 7 16 12 15 10 8 7 8 6 7 7 8
3 7 12 9 9 11 2 7 7 5 3 4 3 1 7 4 4 7 11 10 8 4 7 6 6 5 4 4 4 4 6 7 7 8 13 11 12 9 6 6 8 8 6 7
4 3 4 4 5 8 8 8 8 4 3 2 8 7 5 6 9 4 1 5 7 7 7 7 5 2 1 1 4 5 5 7 7 5 9 11 11 8 5 5 7 6 6 6
5 2 3 4 9 4 5 6 2 1 0 6 4 5 11 4 4 5 6 7 8 7 7 5 5 3 3 4 3 4 3 6 6 5 4 9 10 9 7 5 6 7 5 4
8 5 8 5 5 9 10 9 8 9 6 3 5 9 9 13 2 2 2 7 8 8 6 5 4 3 4 4 4 5 6 5 4 1 0 4 6 5 5 5 4 6 6 6
10 3 6 7 0 10 6 5 1 8 3 5 7 8 8 6 6 6 7 4 6 7 7 6 4 4 5 5 5 4 4 5 6 7 6 6 6 6 5 5 5 3 4 3
1 6 2 2 2 2 3 4 4 2 5 5 7 6 8 3 10 8 8 8 7 7 7 6 5 5 4 5 4 6 6 5 5 6 6 5 6 6 5 5 5 5 4 3
2 7 2 4 7 9 2 5 5 6 5 7 2 8 4 5 7 11 10 9 9 8 7 6 5 5 4 4 5 5 5 6 6 6 6 7 7 6 6 7 6 5 5 5
5 5 5 8 1 3 9 7 8 7 4 2 3 12 5 7 4 3 10 10 9 9 8 7 6 5 4 5 5 6 6 7 6 6 8 9 9 9 9 8 8 7 7 6
9 4 4 2 2 3 3 2 4 5 4 6 7 16 4 6 5 4 7 7 7 7 7 7 7 6 6 5 6 6 6 6 6 6 8 9 9 9 8 8 7 7 7 7
8 4 9 13 3 11 6 7 7 6 4 21 11 25 2 4 6 5 6 8 8 8 8 7 7 7 7 7 7 6 6 6 7 8 9 10 9 9 8 8 8 8 7 7
6 6 4 5 4 3 4 7 13 18 21 8 22 18 25 7 10 10 8 8 9 9 10 10 9 7 6 6 7 7 6 6 7 9 10 8 7 8 8 8 7 7 7 6
1 1 1 4 3 3 2 10 13 16 18 13 19 19 30 2 5 8 11 12 13 14 14 11 9 9 8 8 7 8 7 7 7 8 9 7 7 7 7 7 7 7 7 7
4 6 4 2 7 5 8 21 10 9 12 10 17 28 21 14 7 9 11 14 17 16 14 12 13 11 8 8 9 9 8 7 6 8 7 7 6 7 6 6 7 7 7 6
5 5 4 3 5 5 8 8 11 17 17 17 19 22 24 18 3 8 13 17 15 10 12 14 14 12 11 8 9 10 9 7 7 8 8 6 6 6 6 6 7 6 4 4
4 4 4 4 6 9 18 4 7 9 17 11 19 23 22 17 6 18 6 11 16 19 19 13 12 14 12 11 10 11 8 7 8 7 7 6 6 5 5 6 5 4 3 4
6 4 4 4 5 9 3 2 4 5 12 3 8 8 9 9 6 17 6 8 7 10 10 13 14 13 13 10 11 11 8 8 8 6 7 6 5 4 5 6 5 3 2 4
5 4 13 9 5 9 4 4 2 7 5 3 2 3 6 3 5 15 9 5 7 11 15 14 14 13 11 10 11 11 9 9 6 6 6 6 5 4 5 3 3 5 5 5
11 10 6 7 4 14 6 1 10 5 4 6 4 4 2 3 7 8 9 8 11 16 14 12 14 12 9 10 11 11 10 7 6 5 6 5 4 4 6 7 6 4 4 5
5 7 7 10 9 2 5 1 2 4 5 6 5 5 6 6 3 5 5 7 8 10 10 9 13 12 8 8 7 11 7 6 5 5 5 7 6 6 5 5 3 4 5 4
3 2 3 3 5 4 3 2 4 6 4 1 2 4 4 7 9 9 6 6 7 6 9 9 11 10 9 7 9 8 7 5 6 7 6 5 5 4 4 3 3 3 3 2
4 6 5 5 4 4 1 1 3 3 2 2 3 3 5 7 8 12 12 9 7 7 7 8 9 9 9 8 7 7 6 5 6 5 4 4 3 3 2 2 1 1 3 2
5 7 6 5 2 3 2 2 3 3 4 6 7 5 6 7 9 10 11 14 12 11 8 7 6 9 8 6 7 6 5 4 4 5 3 3 2 2 2 1 2 6 7 9
Wind_Direction
197 175 188 189 197 238 112 160 169 124 38 157 237 265 256 242 209 221 235 243 240 212 208 194 191 194 194 190 176 175 176 182 187 193 192 190 193 188 198 191 196 185 180 184
114 217 190 193 208 128 138 142 168 68 83 104 307 266 260 256 246 222 211 231 229 236 194 187 154 165 182 204 200 192 181 179 185 185 200 199 199 205 197 190 191 186 184 183
164 191 207 173 139 159 189 173 150 116 162 192 309 274 238 246 230 249 230 223 241 208 206 172 163 180 183 204 223 214 205 190 182 185 180 173 198 162 193 199 195 206 190 186
231 180 153 146 167 160 192 140 111 135 143 192 187 272 313 250 218 220 248 242 236 249 150 113 100 112 158 221 328 250 244 223 204 180 182 187 200 205 200 204 189 193 201 194
175 163 149 172 190 175 207 127 130 122 117 77 177 34 261 8 235 236 237 222 223 142 83 95 76 62 22 357 310 288 287 284 249 179 185 185 197 225 198 185 185 183 187 193
62 318 141 133 42 144 138 95 85 108 138 268 190 167 248 200 209 220 99 126 130 115 98 88 70 38 52 335 267 247 248 258 266 256 183 188 202 200 199 183 189 182 183 191
116 152 57 124 80 81 158 147 111 108 82 220 324 171 233 267 248 210 195 175 152 137 138 150 147 118 57 12 341 357 260 242 236 238 225 184 201 181 197 184 173 175 167 173
160 188 158 196 178 175 201 178 159 177 183 205 341 235 255 220 106 68 85 170 142 143 125 143 130 112 84 33 23 59 18 20 0 248 247 20 176 184 172 185 167 176 183 191
169 211 88 129 169 134 216 238 111 101 0 70 210 275 300 194 235 216 206 174 167 163 158 160 145 104 91 72 22 83 72 34 35 45 68 57 66 79 105 91 87 112 125 132
107 105 39 38 340 343 128 159 64 315 135 219 250 236 228 161 238 229 215 200 185 153 154 150 139 113 89 86 70 51 67 90 62 43 49 58 57 62 74 83 83 89 87 80
235 113 110 129 220 166 170 200 209 153 171 174 243 251 195 191 219 207 198 172 166 161 163 157 123 100 96 92 85 80 73 77 75 78 74 73 72 66 65 69 65 76 74 74
174 113 155 200 208 231 224 207 179 147 255 268 136 260 152 130 114 145 172 176 165 157 158 141 135 139 125 106 93 86 73 71 67 66 77 71 67 61 59 59 51 49 63 55
169 202 91 152 226 103 218 230 244 278 51 207 151 260 202 72 63 41 141 134 137 137 132 139 147 158 140 119 99 90 83 81 80 73 76 73 69 68 59 53 47 44 56 52
147 179 193 202 139 150 188 185 213 198 181 232 229 260 216 161 167 167 156 154 146 157 162 165 175 158 142 136 121 107 94 89 86 81 73 68 62 64 59 53 50 48 44 49
151 190 204 255 337 83 166 179 201 215 229 189 245 249 262 232 206 198 182 155 165 186 185 187 177 156 144 126 117 107 91 81 84 83 77 72 70 67 64 57 48 46 45 39
134 187 131 39 91 314 296 235 213 223 238 244 261 268 262 203 280 165 179 182 190 199 199 183 157 153 159 150 134 115 96 83 81 88 81 71 69 64 60 58 55 50 38 34
101 129 85 233 144 86 307 242 190 225 236 220 237 247 272 272 241 197 196 194 204 207 189 176 167 161 151 141 132 123 108 92 101 93 83 74 67 65 51 52 51 42 32 21
110 105 91 165 72 197 242 144 205 228 237 236 258 264 262 267 279 249 215 197 209 191 173 173 166 149 146 131 113 110 100 111 101 86 80 66 65 64 52 53 48 35 22 7
133 112 121 149 186 310 292 201 175 170 249 241 240 257 270 281 292 255 229 198 211 193 187 169 147 137 126 122 117 111 112 106 97 86 78 65 56 57 54 50 32 22 1 5
150 109 131 155 191 212 280 342 323 118 255 349 43 29 1 342 259 278 223 201 163 133 140 140 132 126 118 121 119 116 108 98 87 83 81 70 61 61 58 37 19 346 328 353
148 162 207 209 238 277 189 253 307 135 227 215 113 11 344 6 282 304 301 31 97 121 121 121 119 117 117 116 117 112 108 99 98 92 86 73 58 60 55 45 18 10 0 338
168 173 188 199 225 258 176 50 163 191 163 169 152 150 162 303 337 9 23 50 93 113 112 112 110 104 102 113 117 110 104 109 97 98 97 84 66 56 35 29 16 344 351 1
170 181 170 186 208 167 181 120 128 160 183 182 166 193 162 107 69 26 46 65 76 87 95 97 108 99 66 70 101 113 114 111 114 113 88 59 47 38 29 22 356 10 8 8
287 158 161 89 237 198 190 215 222 199 206 164 252 194 198 139 146 125 101 87 89 97 107 111 108 109 107 90 92 104 118 117 87 75 66 61 56 39 32 5 17 15 4 318
191 126 170 268 278 275 280 99 353 334 168 218 272 269 252 152 173 154 139 133 129 124 125 129 130 128 123 125 115 98 93 95 99 102 92 75 70 52 27 6 340 339 262 281
186 178 170 213 192 133 86 58 10 341 275 232 225 245 235 183 179 168 157 148 146 142 132 118 115 122 123 108 101 90 78 87 113 113 106 95 79 53 39 12 313 340 360 352